Wind_Speed
9 9 8 8 8 8 8 8 8 8 8 9 9 8 8 8 8 8 8 8 8 8 7 7 7 7 8 8 8 8 8 8 8 8 9 9 9 9 9 9 9 9 9 9
10 9 9 10 10 9 9 9 9 9 9 9 9 9 8 8 9 9 9 9 8 9 8 8 8 8 9 8 8 8 8 8 9 9 10 10 9 9 9 9 9 9 10 10
10 10 10 10 11 11 10 10 9 9 10 11 11 10 10 9 9 9 10 10 10 9 9 9 9 9 9 9 8 8 9 9 9 9 10 10 9 9 9 10 10 10 10 11
12 11 11 11 11 11 11 10 11 11 11 11 12 11 11 10 10 11 11 11 11 10 10 10 9 9 9 9 9 9 9 9 9 9 9 9 9 9 10 10 11 11 11 11
12 12 12 12 11 12 11 11 12 12 13 12 12 12 11 11 11 12 12 12 12 12 12 11 10 11 10 10 10 11 11 10 10 10 10 10 10 11 11 11 11 11 11 11
13 13 13 12 11 12 12 12 13 14 14 13 13 13 11 12 12 13 13 13 13 13 13 13 12 12 12 12 12 12 12 11 11 10 10 10 11 11 11 12 12 12 12 12
14 14 13 13 12 12 12 13 14 15 15 14 14 14 12 12 13 14 14 14 14 14 14 14 14 13 13 13 12 12 13 12 12 12 11 12 11 12 12 13 13 13 13 13
16 16 15 14 14 13 13 14 15 17 16 15 15 15 14 14 15 15 15 15 15 15 15 15 15 14 14 13 13 13 13 12 12 12 12 12 12 13 13 13 13 13 14 14
17 17 16 16 15 15 15 15 16 17 18 17 17 16 15 15 14 15 15 15 16 16 16 16 15 15 15 14 14 14 14 14 13 12 13 13 13 13 13 14 14 14 15 15
17 17 17 17 16 16 16 17 17 18 19 18 17 16 15 14 14 15 15 15 15 16 16 16 16 15 15 15 15 16 15 15 14 15 14 14 14 14 15 15 15 15 15 15
18 18 17 17 17 16 17 17 17 18 19 19 18 16 15 15 15 15 15 15 15 16 17 17 17 17 17 17 17 17 16 16 15 15 15 16 16 16 16 16 16 16 16 16
18 18 18 17 17 17 17 17 18 18 19 19 18 16 15 15 15 15 16 16 16 16 17 17 18 17 17 18 18 18 18 17 17 16 16 17 17 17 17 17 17 17 17 17
19 19 19 18 17 17 18 18 18 18 19 19 18 16 14 15 15 15 16 16 16 16 17 17 18 18 18 19 19 19 19 19 19 19 18 18 18 18 18 18 18 18 18 18
19 20 20 19 18 18 18 18 18 19 19 19 18 16 14 15 15 16 17 17 17 17 17 18 18 18 18 19 20 20 20 20 20 20 20 19 19 19 19 19 19 19 19 19
19 20 20 20 19 19 18 18 18 18 18 19 18 18 17 17 16 17 18 18 17 17 18 18 19 19 19 19 20 20 20 21 20 20 20 20 20 20 20 20 20 20 19 20
19 20 20 20 20 20 19 18 18 18 18 18 19 19 18 18 18 18 19 18 18 18 18 18 18 19 20 20 20 21 21 20 21 21 21 21 21 21 21 21 21 20 20 20
19 20 20 20 20 21 20 19 19 19 19 19 19 19 19 19 19 18 19 19 18 18 19 18 18 18 19 20 21 22 22 22 21 22 22 22 21 21 21 21 22 21 21 21
21 20 21 21 21 22 20 20 20 20 20 20 20 20 20 20 19 19 19 20 19 19 19 19 19 18 19 19 20 21 22 23 23 23 23 24 23 23 22 22 22 22 23 23
21 21 22 22 23 22 21 21 21 21 21 21 22 21 21 21 21 20 21 21 20 20 19 20 20 19 19 20 21 21 22 22 23 23 23 24 24 24 24 24 24 24 24 24
21 22 23 23 23 23 21 22 22 23 23 22 22 22 22 21 21 21 21 21 21 21 21 21 22 22 22 21 22 23 24 24 24 24 24 24 25 25 25 24 25 25 25 24
22 22 23 23 24 24 22 23 23 24 23 23 23 24 23 23 22 22 22 22 22 22 22 23 23 23 24 24 24 24 25 25 25 25 25 25 25 26 26 25 25 25 26 25
22 23 23 24 24 24 23 24 24 25 24 24 24 24 24 24 23 22 23 23 23 23 24 24 25 25 25 25 25 25 26 26 26 26 27 26 26 26 26 26 26 26 27 27
23 23 24 24 24 24 24 24 24 25 25 25 25 25 25 25 25 24 24 24 24 24 25 25 26 27 27 26 26 26 25 26 27 27 28 27 27 26 27 27 27 28 28 28
23 23 23 24 24 25 25 25 25 25 25 26 26 26 26 26 25 25 26 26 26 26 27 27 27 27 27 27 27 27 27 28 28 28 29 29 29 29 29 29 29 29 29 30
24 24 24 25 25 25 26 26 26 26 27 26 26 26 26 26 26 27 27 28 28 28 29 29 29 28 28 28 28 28 29 29 30 30 30 30 30 30 31 30 30 30 30 31
23 25 26 26 26 26 26 27 27 27 27 27 28 27 28 28 27 28 28 28 29 29 29 30 29 29 29 29 29 30 30 30 30 30 30 30 30 30 30 31 31 31 32 32
Wind_Direction
263 261 261 260 257 255 258 257 255 255 258 260 266 267 262 261 259 260 261 261 261 261 261 265 269 273 274 273 269 262 257 258 263 267 265 264 266 268 269 272 273 277 280 283
257 258 258 255 253 253 258 259 259 258 259 261 266 267 264 258 259 261 261 260 260 262 263 263 268 273 274 275 271 263 259 263 265 266 265 265 266 266 267 273 276 278 282 285
259 258 258 256 255 258 262 264 264 261 262 266 268 265 262 262 262 259 256 256 256 258 258 261 266 270 270 270 270 265 260 261 262 265 264 263 265 268 270 274 278 279 280 283
253 253 255 256 257 260 261 264 265 265 262 266 269 264 262 262 262 260 259 259 258 258 259 263 268 272 268 268 268 265 266 263 263 265 267 267 270 272 275 279 283 281 279 283
250 251 252 255 258 260 261 263 266 265 264 266 267 269 266 265 266 264 263 262 264 263 263 265 268 270 269 268 266 265 265 263 264 270 270 269 272 273 276 280 282 284 283 285
248 250 250 251 255 259 262 262 264 265 265 266 269 271 268 274 273 270 267 266 266 264 264 263 266 268 268 268 266 266 262 261 262 266 268 269 272 274 277 280 280 283 284 286
247 248 248 249 252 256 260 263 266 267 267 271 274 274 277 276 274 273 271 269 267 263 263 263 264 267 267 267 267 264 261 262 263 263 266 269 272 275 278 280 280 282 284 286
246 246 248 251 255 259 261 265 268 272 274 275 272 275 281 279 276 274 273 272 270 266 264 262 263 263 263 264 264 262 261 261 267 265 266 269 270 273 276 279 281 283 284 285
249 248 249 252 257 260 262 263 267 270 274 275 273 276 279 279 276 273 272 272 272 269 265 262 262 262 262 262 262 263 262 263 267 270 268 270 272 274 276 278 280 283 285 285
251 250 249 251 255 258 260 263 266 269 273 276 275 276 279 280 280 276 273 271 270 270 268 264 262 262 263 263 261 261 261 262 267 270 270 271 274 276 275 275 278 281 284 285
252 252 252 253 254 257 259 260 263 268 272 276 277 277 280 282 281 279 274 270 269 269 268 265 264 262 262 261 261 261 261 264 267 270 272 273 275 276 276 275 276 278 280 283
252 253 253 254 254 257 261 263 265 267 270 273 276 278 281 280 280 279 277 274 272 270 269 267 264 262 259 259 260 262 263 264 268 270 273 274 275 276 277 276 275 276 278 281
254 255 255 254 254 256 258 262 265 266 269 271 274 277 277 276 276 276 276 275 273 272 270 268 265 263 260 260 259 260 263 265 267 269 272 274 274 276 277 277 275 275 276 278
256 256 257 256 256 256 258 259 260 263 265 268 271 273 273 275 274 274 275 276 275 273 271 269 267 265 262 262 262 262 263 264 265 268 269 273 276 276 278 277 275 275 276 278
258 256 256 256 257 258 259 260 261 263 267 270 272 274 275 274 273 273 274 275 276 276 275 274 271 270 267 266 265 264 263 261 262 267 269 271 273 274 275 276 275 274 276 278
258 257 255 255 256 257 257 259 263 265 268 272 275 275 276 275 274 274 275 275 274 276 276 275 273 272 271 269 267 265 264 262 262 265 270 271 271 274 274 274 274 274 276 278
256 258 256 255 255 255 255 257 261 265 268 272 275 277 278 276 275 275 273 273 274 275 274 275 275 273 272 269 269 267 265 267 266 266 269 271 272 273 273 272 272 274 275 276
254 257 258 256 255 255 257 258 260 262 266 271 274 276 277 278 276 275 274 274 275 275 274 276 277 277 276 272 271 270 269 268 268 269 267 270 272 273 273 273 275 274 274 275
255 256 258 258 257 259 258 262 263 264 265 268 271 272 274 275 274 274 273 275 275 273 272 275 277 279 278 275 274 273 272 271 271 271 270 269 271 273 273 274 276 277 277 275
256 256 258 259 261 262 261 262 263 265 266 268 269 271 272 274 273 274 274 273 273 272 273 274 276 278 279 277 275 276 274 273 271 270 271 270 271 273 274 274 275 276 276 277
257 257 258 260 262 263 263 263 264 266 269 269 270 270 271 272 274 273 273 272 272 272 273 276 277 277 278 277 275 275 275 275 273 271 271 271 273 273 274 273 273 274 275 276
261 259 258 260 261 262 263 263 264 266 268 269 270 270 270 271 273 273 274 273 272 273 274 277 278 278 278 277 275 275 275 275 275 274 272 271 273 274 274 273 273 273 274 276
261 263 262 262 263 263 263 265 266 268 269 270 270 272 272 272 273 274 275 274 274 273 275 276 277 277 278 278 277 275 274 275 276 277 274 272 273 273 274 273 272 273 274 276
261 263 264 265 264 264 264 265 266 267 267 268 270 272 273 273 273 273 275 276 276 277 277 277 279 277 277 277 277 275 275 276 277 277 275 273 272 272 274 273 272 273 274 275
263 263 264 264 265 264 264 266 267 267 267 267 270 271 271 273 273 275 276 277 278 278 279 278 277 276 275 274 274 275 276 277 278 277 275 274 272 272 272 273 273 273 274 275
263 264 265 265 266 266 267 268 268 268 268 269 271 273 273 273 272 274 276 277 278 278 279 279 279 278 277 277 276 277 277 277 278 278 277 275 273 273 272 273 274 275 275 275
Height
5823 5824 5824 5825 5825 5826 5826 5826 5827 5827 5827 5827 5828 5828 5828 5828 5828 5829 5829 5828 5828 5828 5828 5827 5827 5827 5827 5827 5827 5827 5828 5828 5828 5828 5829 5829 5829 5829 5829 5829 5829 5829 5829 5829
5821 5822 5823 5822 5823 5823 5824 5824 5825 5825 5825 5825 5826 5826 5826 5826 5826 5826 5826 5826 5826 5826 5826 5825 5825 5825 5825 5824 5824 5824 5825 5825 5826 5826 5826 5826 5827 5827 5827 5827 5827 5827 5826 5826
5818 5820 5820 5820 5821 5821 5822 5823 5823 5823 5823 5823 5823 5824 5824 5824 5824 5824 5824 5824 5823 5823 5823 5823 5823 5822 5822 5822 5822 5822 5823 5823 5823 5823 5824 5824 5824 5824 5824 5824 5824 5824 5824 5823
5815 5816 5817 5818 5818 5819 5820 5820 5820 5820 5820 5820 5821 5821 5822 5822 5821 5821 5821 5821 5821 5821 5820 5820 5820 5820 5819 5819 5819 5820 5820 5820 5820 5821 5821 5821 5821 5821 5821 5821 5821 5821 5821 5820
5812 5813 5814 5815 5816 5816 5817 5817 5817 5817 5817 5818 5818 5818 5819 5818 5818 5819 5819 5819 5818 5818 5818 5817 5817 5817 5817 5817 5817 5817 5817 5817 5817 5817 5818 5818 5818 5818 5818 5818 5818 5818 5817 5817
5809 5810 5811 5812 5813 5813 5813 5814 5814 5814 5814 5815 5815 5815 5816 5815 5815 5815 5815 5815 5815 5815 5815 5814 5814 5813 5813 5814 5814 5814 5813 5814 5814 5814 5815 5815 5815 5815 5815 5815 5815 5814 5814 5813
5805 5806 5807 5808 5809 5810 5810 5811 5811 5810 5810 5812 5812 5811 5813 5812 5811 5811 5811 5811 5811 5811 5811 5811 5810 5810 5810 5810 5810 5810 5810 5811 5811 5811 5811 5811 5811 5811 5812 5811 5811 5811 5810 5810
5801 5802 5803 5804 5805 5806 5807 5808 5808 5808 5808 5808 5808 5807 5809 5808 5808 5807 5807 5806 5806 5806 5806 5806 5806 5806 5806 5806 5806 5807 5807 5807 5807 5807 5807 5807 5808 5808 5808 5808 5807 5807 5806 5806
5797 5799 5800 5801 5802 5803 5803 5803 5804 5804 5803 5803 5803 5804 5804 5804 5803 5803 5803 5802 5802 5802 5802 5802 5802 5802 5802 5802 5802 5803 5803 5803 5803 5803 5803 5803 5803 5803 5803 5803 5803 5803 5802 5802
5793 5795 5796 5797 5798 5798 5799 5800 5800 5799 5798 5798 5799 5800 5800 5800 5799 5799 5799 5798 5797 5797 5797 5797 5797 5797 5797 5798 5798 5798 5799 5799 5799 5799 5799 5799 5799 5799 5799 5799 5799 5798 5798 5797
5788 5790 5792 5792 5793 5794 5795 5795 5794 5794 5794 5794 5794 5798 5796 5796 5795 5794 5794 5793 5793 5793 5792 5792 5792 5792 5792 5793 5794 5794 5794 5795 5795 5795 5795 5794 5794 5794 5794 5794 5793 5793 5793 5792
5784 5785 5786 5788 5789 5789 5790 5790 5790 5791 5790 5789 5789 5794 5792 5791 5790 5789 5789 5788 5788 5788 5787 5787 5787 5787 5787 5788 5789 5789 5789 5789 5790 5790 5790 5789 5789 5789 5788 5788 5788 5788 5787 5787
5779 5781 5782 5783 5786 5785 5784 5785 5785 5786 5785 5785 5785 5789 5787 5786 5785 5784 5784 5784 5783 5783 5782 5782 5782 5782 5782 5783 5783 5783 5784 5784 5784 5784 5784 5784 5784 5783 5783 5783 5782 5782 5782 5781
5774 5775 5777 5778 5779 5779 5780 5780 5780 5781 5780 5780 5781 5782 5782 5781 5780 5780 5779 5779 5778 5778 5777 5777 5777 5777 5777 5777 5777 5777 5778 5778 5778 5778 5778 5778 5778 5778 5777 5777 5777 5776 5776 5776
5769 5770 5771 5773 5773 5774 5775 5775 5776 5776 5776 5776 5777 5776 5777 5776 5775 5775 5774 5774 5773 5773 5772 5772 5772 5771 5771 5771 5771 5771 5771 5771 5772 5772 5772 5772 5772 5772 5771 5771 5771 5770 5770 5770
5763 5764 5766 5767 5768 5769 5770 5771 5771 5771 5771 5771 5771 5771 5771 5771 5770 5770 5769 5769 5768 5768 5767 5766 5766 5766 5765 5765 5765 5765 5765 5765 5765 5766 5766 5766 5766 5765 5765 5765 5764 5764 5764 5763
5758 5759 5760 5762 5763 5763 5765 5766 5766 5766 5766 5766 5766 5767 5766 5766 5765 5765 5764 5763 5763 5762 5761 5761 5760 5760 5759 5758 5759 5759 5759 5759 5759 5759 5760 5759 5759 5759 5758 5758 5758 5757 5757 5757
5753 5754 5754 5756 5757 5757 5761 5760 5760 5760 5761 5761 5760 5761 5760 5760 5760 5759 5758 5758 5757 5756 5756 5755 5755 5754 5753 5753 5752 5752 5752 5752 5752 5752 5752 5752 5752 5752 5751 5751 5751 5751 5750 5750
5747 5748 5749 5749 5750 5751 5754 5754 5754 5755 5755 5755 5755 5755 5754 5754 5754 5754 5753 5752 5752 5751 5750 5750 5749 5748 5748 5747 5746 5746 5746 5746 5745 5745 5745 5745 5745 5744 5744 5744 5744 5743 5743 5742
5741 5742 5743 5743 5743 5745 5748 5748 5748 5749 5749 5749 5749 5748 5748 5748 5748 5749 5747 5746 5746 5745 5744 5744 5743 5742 5741 5741 5740 5740 5739 5739 5738 5738 5738 5738 5737 5737 5736 5736 5736 5735 5735 5734
5735 5735 5736 5736 5737 5738 5741 5741 5742 5743 5744 5742 5742 5742 5741 5741 5741 5741 5740 5740 5739 5739 5738 5737 5736 5736 5735 5734 5733 5732 5732 5731 5731 5731 5730 5730 5729 5729 5729 5728 5728 5727 5727 5726
5729 5729 5730 5730 5731 5734 5733 5734 5735 5735 5735 5735 5735 5735 5734 5734 5734 5733 5733 5732 5732 5731 5731 5730 5729 5728 5728 5726 5725 5725 5724 5724 5723 5723 5722 5722 5721 5721 5720 5720 5720 5719 5719 5718
5722 5723 5723 5725 5727 5726 5726 5727 5727 5728 5728 5728 5728 5728 5727 5727 5726 5726 5726 5725 5725 5724 5723 5723 5722 5721 5720 5719 5718 5717 5717 5716 5715 5715 5714 5713 5713 5712 5712 5712 5711 5711 5710 5710
5716 5716 5716 5717 5718 5718 5719 5719 5719 5720 5720 5720 5720 5720 5720 5719 5719 5719 5718 5718 5717 5716 5716 5715 5714 5712 5712 5711 5710 5709 5708 5708 5707 5706 5705 5705 5704 5704 5703 5703 5702 5702 5701 5701
5709 5709 5709 5710 5711 5711 5712 5712 5712 5712 5712 5712 5712 5712 5712 5712 5712 5711 5710 5710 5709 5708 5707 5706 5705 5704 5703 5702 5701 5700 5699 5699 5698 5697 5697 5696 5695 5695 5694 5693 5693 5692 5692 5691
5702 5702 5703 5703 5703 5704 5704 5704 5704 5705 5705 5704 5704 5704 5704 5703 5703 5703 5702 5701 5700 5699 5698 5697 5696 5695 5694 5693 5692 5691 5690 5690 5689 5688 5687 5686 5685 5685 5684 5684 5683 5682 5682 5682